Regional Weather Roundup
Issued by NWS Sioux Falls, SD

Home | Current Version | Previous Version | Text Only | Print | Product List | Glossary On
Versions: 1 2 3 4 5 6 7 8 9 10 11 12 13 14 15 16 17 18 19 20 21 22 23 24 25 26 27 28 29 30 31 32 33 34 35 36 37 38 39 40 41 42 43 44 45 46 47 48 49 50
000
ASUS43 KFSD 280610
RWRFSD

WEATHER ROUNDUP FOR SE SOUTH DAKOTA/SW MINNESOTA/NW IOWA
NATIONAL WEATHER SERVICE SIOUX FALLS SD
100 AM CDT THU MAY 28 2015

NOTE: "FAIR" INDICATES FEW OR NO CLOUDS BELOW 12,000 FEET WITH NO
SIGNIFICANT WEATHER AND OR OBSTRUCTIONS TO VISIBILITY.


SDZ038>040-050-052>070-280700-
SOUTHEAST SOUTH DAKOTA

CITY           SKY/WX    TMP DP  RH WIND       PRES   REMARKS
BROOKINGS      MOCLDY    64  52  63 SE10      30.03S
CHAMBERLAIN    CLOUDY    64  55  74 SE5       29.97F
6HR MIN TEMP:  62; 6HR MAX TEMP:  76;

HURON            N/A    N/A N/A N/A MISG      29.97S
MITCHELL       MOCLDY    67  55  65 S7        29.99S
6HR MIN TEMP:  67; 6HR MAX TEMP:  82;

SIOUX FALLS    PTCLDY    65  50  58 S8        30.03S
6HR MIN TEMP:  65; 6HR MAX TEMP:  79;

WINNER         FAIR      66  54  65 S8        29.97F
YANKTON        MOCLDY    64  46  52 CALM      30.01S
$$

MNZ071-072-080-081-089-090-097-098-280700-
SOUTHWEST MINNESOTA

CITY           SKY/WX    TMP DP  RH WIND       PRES   REMARKS
FAIRMONT       CLEAR     66  52  59 SW7       30.06R
MARSHALL       MOCLDY    64  48  55 SW9       30.01S
6HR MIN TEMP:  64; 6HR MAX TEMP:  84;

REDWOOD FALLS  PTCLDY    67  54  63 CALM      30.01S
WORTHINGTON    PTCLDY    64  48  55 S10       30.06S
$$

IAZ001>003-012>014-020>022-031-032-NEZ013-014-SDZ071-280700-
NORTHWEST IOWA

CITY           SKY/WX    TMP DP  RH WIND       PRES   REMARKS
CHEROKEE       CLEAR     57  56  97 CALM      30.07S
DENISON        MOCLDY    66  54  63 VRB3      30.08R
ESTHERVILLE    CLEAR     61  55  81 S8        30.07R
LE MARS        PTCLDY    64  52  63 SE3       30.07R
ORANGE CITY    PTCLDY    64  52  63 S3        30.06S
SHELDON        CLEAR     61  54  77 S6        30.05S
SIOUX CITY     MOCLDY    64  51  62 SE6       30.06R
6HR MIN TEMP:  62; 6HR MAX TEMP:  82;

SPENCER        CLEAR     64  54  69 S9        30.07S
6HR MIN TEMP:  63; 6HR MAX TEMP:  83;

STORM LAKE     CLEAR     64  52  63 S6        30.09S
$$

ABBREVIATIONS USED IN REMARKS
   TC - TEMPERATURE IN CELSIUS
  WCI - WIND CHILL INDEX
   HX - HEAT INDEX
  VSB - VISIBILITY



USA.gov is the U.S. government's official web portal to all federal, state and local government web resources and services.